AO-07 1 07530U 74089B 15211.73135081 -.00000045 00000-0 -99373-5 0 9998 2 07530 101.5243 186.0036 0011574 216.9060 200.3921 12.53615613862713 FO-29 1 24278U 96046B 15211.85307422 -.00000036 00000-0 23656-5 0 9996 2 24278 098.5444 174.7474 0349728 317.7649 100.3271 13.53055224935936 SO-33 1 25509U 98061B 15210.80613199 .00000292 00000-0 46873-4 0 9996 2 25509 031.4323 009.8582 0347558 087.0443 276.9892 14.30025758875524 RS-22 1 27939U 03042A 15211.89392848 .00000337 00000-0 69620-4 0 9990 2 27939 097.8460 011.8551 0011945 248.7870 111.2057 14.66108554632595 HO-68 1 36122U 09072B 15211.71867418 -.00000060 00000-0 -43517-4 0 9996 2 36122 100.1907 254.9653 0007772 023.0015 337.1440 13.16328425270187 AO-73 1 39444U 13066AE 15211.76053003 .00000773 00000-0 10520-3 0 9992 2 39444 097.7276 272.9154 0059424 355.2079 004.8557 14.80366308 89868 EO-79 1 40025U 14033R 15211.67971075 .00000867 00000-0 10223-3 0 9996 2 40025 097.9478 112.0001 0014041 046.5782 313.6600 14.87262809 60264 UO-11 1 14781U 84021B 15210.75974661 .00000301 00000-0 44030-4 0 9999 2 14781 097.7983 266.7868 0007197 296.3165 063.7309 14.82462129688330 AO-16 1 20439U 90005D 15210.81399576 .00000027 00000-0 26144-4 0 9999 2 20439 098.5414 146.3862 0011670 039.6058 014.0650 14.32558980332848 LO-19 1 20442U 90005G 15210.80360174 .00000017 00000-0 22058-4 0 9993 2 20442 098.5123 145.8042 0012405 027.7918 332.3926 14.32750393333040 AO-27 1 22825U 93061C 15211.79892193 .00000019 00000-0 24681-4 0 9991 2 22825 098.7115 161.9274 0008393 173.2972 244.0447 14.29894375139174 IO-26 1 22826U 93061D 15210.85526619 .00000018 00000-0 24109-4 0 9999 2 22826 098.7056 161.1452 0009041 168.2667 191.8728 14.30212517139181 GO-32 1 25397U 98043D 15211.12120436 -.00000011 00000-0 13675-4 0 9998 2 25397 098.5226 160.2242 0001310 146.8206 279.0299 14.23554535885904 NO-44 1 26931U 01043C 15211.36505868 .00000037 00000-0 46085-4 0 9997 2 26931 067.0511 065.7152 0005732 272.2522 087.7923 14.30331770721979 SO-50 1 27607U 02058C 15211.70676470 .00000201 00000-0 49376-4 0 9990 2 27607 064.5549 065.9082 0082624 279.9252 079.2531 14.74798944677706 CO-55 1 27844U 03031E 15211.83803448 .00000124 00000-0 76193-4 0 9997 2 27844 098.6956 219.7426 0009871 167.6583 316.9592 14.21828295626643 CO-57 1 27848U 03031J 15211.01112727 .00000093 00000-0 62722-4 0 9992 2 27848 098.7053 218.8569 0009604 177.4325 241.6158 14.21471635626432 AO-51 1 28375U 04025K 15211.75737232 .00000054 00000-0 29181-4 0 9996 2 28375 098.2939 150.9558 0082259 197.1869 162.6532 14.41682219582768 CP3 1 31129U 07012N 15211.84236669 .00000342 00000-0 83280-4 0 9994 2 31129 097.9842 175.7225 0096441 176.8953 239.9819 14.55886634439477 CO-65 1 32785U 08021C 15211.18374977 .00000643 00000-0 77591-4 0 9998 2 32785 097.6459 253.1572 0011859 286.5008 149.4259 14.86978915392629 PRISM 1 33493U 09002B 15211.77891339 .00001713 00000-0 16844-3 0 9998 2 33493 098.2486 051.3096 0015924 182.7327 177.3816 14.93502105353088 SOHLA-1 1 33496U 09002E 15211.77753446 .00000196 00000-0 39907-4 0 9997 2 33496 098.2177 340.0428 0006976 036.0235 100.9472 14.71399331349582 TISAT-1 1 36799U 10035E 15211.84698737 .00001299 00000-0 14508-3 0 9997 2 36799 098.0183 312.7390 0014183 067.3996 052.4095 14.88691580273453 STUDSAT 1 36801U 10035G 15210.86779045 .00009515 00000-0 53494-3 0 9990 2 36801 098.0653 332.7278 0005183 008.4463 106.7025 15.13511782274429 ALMASAT-1 1 38078U 12006B 15211.19333838 .00018025 33658-5 30452-3 0 9996 2 38078 069.4554 131.8454 0473604 198.1497 160.2243 14.80667859181406 CUBEBUG-1 1 39153U 13018D 15211.78081165 .00000654 00000-0 94721-4 0 9992 2 39153 098.0166 296.0207 0018702 111.2007 249.1205 14.79324001121928 ESTCUBE-1 1 39161U 13021C 15211.72895674 .00000419 00000-0 76006-4 0 9992 2 39161 098.0702 294.2745 0009797 167.9333 192.2119 14.71239478119647 DUCHIFAT-1 1 40021U 14033M 15211.67856214 .00001323 00000-0 14933-3 0 9999 2 40021 097.9498 112.4065 0014803 046.4444 313.7999 14.88198729 60279 NANOSATCBR1 1 40024U 14033Q 15211.68118660 .00001128 00000-0 12967-3 0 9997 2 40024 097.9479 112.1592 0013938 045.9728 314.2633 14.87760989 60262 DTUSAT-2 1 40030U 14033W 15211.71599225 .00000889 00000-0 10568-3 0 9996 2 40030 097.9466 111.7447 0013373 040.4476 319.7731 14.86888518 60247 ANTELSAT 1 40034U 14033AA 15211.65961735 .00000585 00000-0 96999-4 0 9998 2 40034 097.9373 102.7383 0060095 341.8034 018.1039 14.72814681 59691 MET-2/21 1 22782U 93055A 15211.10216463 .00000032 00000-0 15772-4 0 9997 2 22782 082.5472 209.6129 0021909 197.2324 227.5041 13.83772346106539 OKEAN-4 1 23317U 94066A 15211.70984414 .00000574 00000-0 61506-4 0 9996 2 23317 082.5360 044.5449 0020007 181.2493 270.3091 14.86756438123773 NOAA-14 1 23455U 94089A 15211.44372271 -.00000011 00000-0 17206-4 0 9992 2 23455 098.7510 292.0041 0008716 322.5636 166.2753 14.14048214 61644 NOAA-15 1 25338U 98030A 15211.45993430 .00000095 00000-0 59062-4 0 9998 2 25338 098.7741 210.1278 0011501 047.5816 312.6334 14.25648403895000 RESURS 1 25394U 98043A 15211.76064153 -.00000047 00000-0 -19910-5 0 9997 2 25394 098.4683 165.2792 0002225 119.3387 300.4510 14.24458217886483 FENGYUN1 1 25730U 99025A 15211.08037362 .00001256 00000-0 68940-3 0 9995 2 25730 098.9440 175.9295 0022126 027.2390 064.6892 14.13530141835113 OKEAN-0 1 25860U 99039A 15211.58017889 .00000259 00000-0 44999-4 0 9992 2 25860 098.0980 179.7109 0001425 109.6065 022.3654 14.76096674862389 NOAA-16 1 26536U 00055A 15211.42799595 -.00000012 00000-0 17313-4 0 9995 2 26536 098.9397 277.3594 0011569 109.2491 250.9934 14.13103542765761 NOAA-17 1 27453U 02032A 15211.47560688 .00000012 00000-0 22849-4 0 9994 2 27453 098.3430 195.3359 0012862 059.1034 301.1410 14.24893335680822 NOAA-18 1 28654U 05018A 15211.49331271 .00000108 00000-0 84140-4 0 9999 2 28654 099.1861 205.1972 0013911 195.1821 164.8934 14.12222160525186 NOAA-19 1 33591U 09005A 15211.46372246 .00000077 00000-0 66915-4 0 9994 2 33591 098.9925 161.4527 0014987 050.7816 309.4683 14.11960917333592 HUBBLE 1 20580U 90037B 15211.20617758 .00000944 00000-0 49137-4 0 9995 2 20580 028.4691 230.4196 0002834 344.4437 098.1890 15.07581944186305 ISS 1 25544U 98067A 15211.53448373 .00036210 00000-0 53534-3 0 9992 2 25544 051.6428 227.5798 0000851 005.8214 129.5441 15.54956159954781 CO-58 1 28895U 05043F 15211.01210828 .00000355 00000-0 77996-4 0 9991 2 28895 097.8217 036.5478 0017597 157.0899 203.1092 14.62848846519855 FALCON 1 30776U 07006E 15211.15264637 .00005070 00000-0 20073-3 0 9997 2 30776 035.4282 091.6800 0002531 307.3441 188.6169 15.24909364462864 MAST 1 31126U 07012K 15210.87723616 .00000197 00000-0 52299-4 0 9990 2 31126 097.9643 176.9817 0091252 161.8555 251.8397 14.56101627439703 CAPE1 1 31130U 07012P 15210.94124653 .00000241 00000-0 62241-4 0 9997 2 31130 097.9858 174.3193 0097011 181.7080 178.3801 14.55555952439108 COMPASS 1 32787U 08021E 15211.36441255 .00001234 00000-0 13051-3 0 9991 2 32787 097.6482 257.7062 0011495 269.3291 090.6610 14.90911665392947 AAUSAT2 1 32788U 08021F 15211.12674939 .00001197 00000-0 12351-3 0 9993 2 32788 097.6493 259.0626 0010870 266.2613 093.7363 14.91972029393000 DO-64 1 32789U 08021G 15211.81415234 .00003462 00000-0 28002-3 0 9998 2 32789 097.6783 271.3154 0010618 255.4110 197.1778 15.00394986393626 CO-66 1 32791U 08021J 15211.10335151 .00000860 00000-0 97172-4 0 9996 2 32791 097.6478 255.1696 0012255 278.1804 081.8023 14.88922165392703 RS-30 1 32953U 08025A 15211.69806535 .00000010 00000-0 -13620-7 0 9990 2 32953 082.5039 307.1825 0018246 349.3228 010.7462 12.43062239326013 METEOR-M 1 35865U 09049A 15211.71278655 .00000052 00000-0 42452-4 0 9998 2 35865 098.4976 250.4928 0002470 018.3241 088.2119 14.22040820304395 RS-38 1 35869U 09049E 15211.78737226 -.00000043 00000-0 -30867-6 0 9994 2 35869 098.4863 250.1706 0004526 000.3988 359.7190 14.22303553304455 JUGNU 1 37839U 11058B 15211.37948212 .00000338 00000-0 38360-4 0 9999 2 37839 019.9615 300.6722 0018987 161.8313 260.1201 14.12479527196335 SRMSAT 1 37841U 11058D 15211.68090703 .00000316 00000-0 28879-4 0 9999 2 37841 019.9725 326.4326 0012012 089.6956 046.8688 14.10489390196097 RAX-2 1 37853U 11061D 15211.60763676 .00003115 00000-0 19556-3 0 9995 2 37853 101.7078 084.0062 0194022 308.9544 102.0444 14.96562816203607 AUBIESAT 1 37854U 11061E 15210.71467182 .00002885 00000-0 17668-3 0 9995 2 37854 101.7130 086.4282 0184943 305.8878 093.2165 14.98741285203594 HRBE 1 37855U 11061F 15211.75318407 .00002503 00000-0 15452-3 0 9992 2 37855 101.7117 086.4551 0194034 306.1483 052.1905 14.97557754203677 HORYU-2 1 38340U 12025D 15211.75392312 .00000710 00000-0 11511-3 0 9990 2 38340 098.3167 182.8165 0011124 324.0643 035.9815 14.74405973171954 RS-40 1 38735U 12041C 15211.83286447 .00000040 00000-0 21992-3 0 9996 2 38735 082.4744 032.7612 0017699 084.8416 275.4681 12.42569463136332 PROITERES 1 38756U 12047B 15211.72548616 .00000293 00000-0 50422-4 0 9993 2 38756 098.2223 311.7551 0012805 153.2271 206.9618 14.75874210155425 BEESAT-3 1 39134U 13015E 15211.65825011 .00003348 00000-0 19949-3 0 9991 2 39134 064.8725 278.3821 0029359 246.3240 113.4802 15.12650686125270 BEESAT-2 1 39136U 13015G 15211.62934331 .00002738 00000-0 17299-3 0 9994 2 39136 064.8732 281.2364 0029512 245.3278 114.4771 15.10942642125221 ZACUBE-1 1 39417U 13066B 15211.74462883 .00000622 00000-0 86973-4 0 9999 2 39417 097.7272 272.6213 0060122 356.1875 003.8871 14.79818064 91071 TRITON-1 1 39427U 13066M 15211.12143745 .00000503 00000-0 89851-4 0 9991 2 39427 097.7118 259.3390 0116327 030.7775 330.0183 14.66730908 90157 DELFIN3XT 1 39428U 13066N 15211.09417068 .00000940 00000-0 16277-3 0 9996 2 39428 097.7124 257.5445 0124861 035.9910 324.9622 14.65525297 90024 GOMX-1 1 39430U 13066Q 15211.85583251 .00000572 00000-0 11414-3 0 9990 2 39430 097.7033 251.8090 0154682 052.6311 308.8858 14.58141211 89745 MO-76 1 39436U 13066W 15210.80583143 .00010147 00000-0 65579-3 0 9990 2 39436 097.7445 287.2549 0019619 320.5811 039.3988 15.08262932 91914 LO-74 1 39440U 13066AA 15211.15564683 .00000541 00000-0 84244-4 0 9990 2 39440 097.7213 267.0258 0082086 010.1040 350.1796 14.74628189 90663 PUCPSAT-1 1 39442U 13066AC 15211.17071866 .00000880 00000-0 99173-4 0 9993 2 39442 097.7371 280.2046 0032398 343.7735 016.2442 14.88746961 90267 SPROUT 1 39770U 14029E 15211.06934320 .00000769 00000-0 98810-4 0 9991 2 39770 097.8730 307.3055 0010887 067.2207 293.0125 14.83938098 63995 POPSAT-HIP1 1 40028U 14033U 15211.78914759 .00000859 00000-0 10170-3 0 9999 2 40028 097.9500 112.1956 0015589 042.6824 317.5600 14.87130629 60262 EO-80 1 40032U 14033Y 15211.72687654 .00000888 00000-0 10572-3 0 9997 2 40032 097.9474 111.7680 0013319 040.4941 319.7263 14.86813347 60253 VELOX-1 1 40057U 14034E 15211.72670085 .00000739 00000-0 11510-3 0 9993 2 40057 098.2145 290.5411 0012916 099.0605 261.2080 14.75950995 58306 DAURIA DX 1 1 40071U 14037C 15211.78989519 .00000349 00000-0 53120-4 0 9994 2 40071 098.3540 284.9959 0010019 099.7866 260.4469 14.80451760 57240 UKUBE-1 1 40074U 14037F 15211.77228404 .00000741 00000-0 10001-3 0 9991 2 40074 098.3561 285.8985 0006157 104.3781 255.8120 14.82312412 57291 HODOYOSHI-1 1 40299U 14070B 15211.74780215 .00001823 00000-0 88715-4 0 9997 2 40299 097.4545 292.7225 0012467 348.9595 126.9816 15.19598454 40437 CHUBUSAT-1 1 40300U 14070C 15211.74715794 .00001985 00000-0 10069-3 0 9995 2 40300 097.4518 291.8832 0021630 347.2603 127.8164 15.17916833 40381 QSAT-EOS 1 40301U 14070D 15211.73607446 .00003448 00000-0 17315-3 0 9996 2 40301 097.4475 291.1761 0031179 346.4795 128.9293 15.17540935 40347 TSUBAME 1 40302U 14070E 15211.78579992 .00001552 00000-0 89161-4 0 9999 2 40302 097.4455 289.8227 0042505 349.8402 123.8517 15.13249647 40260 FIREBIRD FU3 1 40377U 15003B 15211.77669883 .00006135 00000-0 30250-3 0 9992 2 40377 099.1156 253.3219 0157834 110.7249 251.0970 15.08086843 27120 FIREBIRD FU4 1 40378U 15003C 15211.77412418 .00005964 00000-0 29385-3 0 9999 2 40378 099.1156 253.3264 0158075 110.6867 251.1383 15.08098185 27125 GRIFEX 1 40379U 15003D 15211.76618911 .00004749 00000-0 23979-3 0 9998 2 40379 099.1165 253.1841 0159383 112.1476 249.6750 15.07292162 27110 LAMBDA-SAT 1 40458U 98067GB 15136.30676273 .20783109 12527-4 14817-2 0 9995 2 40458 051.6075 233.7697 0010355 318.5347 043.1720 16.39926603 21161 NO-84 1 40654U 15210.48129069 .00009177 00000-0 23950-3 0 00792 2 40654 054.9942 036.9724 0243516 354.5088 005.3270 15.14773963010586 NO-83 1 40655U 15210.52865741 .00013038 00000-0 33179-3 0 00865 2 40655 054.9917 036.5784 0240631 354.7296 005.1263 15.15509731010591 DEORBITSAIL 1 40719U 15032E 15211.06547155 .00000265 00000-0 47404-4 0 9991 2 40719 098.0517 100.0756 0016205 188.6197 171.4761 14.74598393 2851 /EX
